Voltar ao catálogo

STARLINK-34396

AtivoComunicaçõesVLEO
NORAD 64436·PAYLOAD·🇺🇸 United States

Lançado Jun 17, 2025 de Vandenberg Space Force Base

Loading…

Próximas Passagens (próximas 24 horas)

TLE

AtualizadoSource: CelesTrak SupGP

Época: Sep 15, 2026, 03:49 UTC

1 64436C 25129AA  26258.15951389  .00025115  00000+0  87301-3 0  2589
2 64436  69.9992 315.2794 0003448 265.9675 120.4877 15.29589769    10

Acompanhe STARLINK-34396 em tempo real com AllMySat

Download on the App Store